Wind_Speed
26 29 32 35 39 43 45 48 52 54 56 60 63 67 71 76 80 84 87 88 93 97 102 105 111 118 122 129 132 129 116 106 97 87 84 86 86 88 85 84 86 88 90
30 33 36 39 42 45 48 51 55 58 60 63 67 71 75 80 84 88 93 94 100 105 109 112 119 125 132 139 130 119 106 92 82 71 69 71 70 67 67 66 70 72 78
35 39 41 44 47 50 53 56 60 63 65 68 72 75 79 84 88 93 98 101 107 111 116 121 130 134 145 139 127 109 96 87 81 70 62 61 62 59 58 58 60 66 70
41 45 48 51 53 56 60 62 65 69 71 73 75 79 84 88 92 96 100 106 110 117 124 128 137 143 147 138 118 103 93 84 77 69 58 56 56 56 55 52 56 58 65
48 52 55 57 59 62 65 66 69 72 74 77 80 83 87 92 96 103 106 111 116 123 129 135 142 152 147 132 111 98 88 80 73 66 60 50 49 52 50 49 53 60 64
51 55 57 60 63 65 67 68 71 74 78 80 84 87 90 96 102 107 112 114 120 127 134 140 149 152 140 122 105 92 83 76 69 61 55 48 41 47 45 45 53 59 62
55 56 58 59 62 65 67 70 73 78 81 84 87 91 96 101 106 111 115 119 124 130 139 146 153 146 133 114 100 89 80 72 63 56 51 45 39 42 42 44 52 59 63
54 55 57 60 63 66 69 74 77 81 84 87 92 95 101 105 110 115 120 125 129 135 142 153 150 137 123 108 94 85 76 66 57 51 47 42 38 39 41 43 52 61 64
55 57 60 63 66 69 72 76 81 85 89 93 96 101 105 109 114 120 124 128 133 142 146 154 138 126 115 102 89 79 70 60 52 47 43 39 36 37 40 44 51 61 64
59 58 60 63 67 71 75 80 84 88 93 96 99 104 109 113 118 124 128 131 138 146 152 147 128 119 107 97 85 73 64 55 48 42 39 36 35 37 40 44 51 61 65
57 59 63 66 69 73 77 82 87 92 97 99 103 107 112 117 123 129 131 134 143 147 155 136 122 108 98 92 80 68 58 51 45 39 37 33 33 36 40 44 51 61 66
60 66 69 72 75 79 82 86 91 95 100 102 105 111 114 120 126 131 134 138 148 149 150 129 115 101 92 86 74 62 53 48 43 38 35 30 32 35 40 44 51 61 66
64 69 72 73 76 81 84 89 95 100 103 107 109 115 118 124 129 132 137 143 148 155 140 124 109 97 88 79 68 57 51 46 40 36 33 29 29 33 39 45 52 61 67
70 74 78 80 83 86 90 94 100 104 106 110 114 118 122 127 131 134 138 147 148 151 130 116 103 92 80 71 62 54 48 42 37 34 31 28 27 32 39 45 52 61 69
75 76 78 80 84 89 92 97 103 107 109 113 117 119 125 129 133 136 140 149 152 141 123 109 98 85 72 64 57 50 44 39 34 30 27 26 26 31 38 44 51 60 69
83 85 86 88 88 90 93 99 105 108 111 116 120 122 127 132 135 139 144 149 153 134 117 104 92 80 68 59 51 46 40 35 30 26 25 24 25 28 36 43 51 59 68
83 84 86 87 89 92 95 101 106 110 112 118 122 126 130 133 137 138 146 151 150 127 112 99 86 73 63 54 47 42 36 31 26 23 23 22 24 27 35 42 49 58 67
87 85 87 91 92 94 98 103 108 112 114 120 124 128 132 134 137 141 148 153 141 119 104 94 81 68 58 51 44 39 33 27 24 21 22 21 23 26 33 40 47 56 65
86 87 89 91 94 97 101 105 110 114 116 122 127 130 133 135 136 144 148 152 130 115 99 88 75 63 55 49 42 35 31 26 22 20 20 20 22 25 31 38 45 54 62
90 90 90 91 94 100 103 107 112 116 118 124 130 132 136 137 139 144 149 146 121 106 93 83 70 59 53 46 38 33 29 24 21 19 18 18 22 25 30 37 44 51 57
94 93 94 97 100 103 105 110 114 118 121 127 132 134 136 138 142 146 151 137 116 100 89 76 65 55 50 43 36 30 26 22 20 19 18 18 23 26 29 35 43 48 54
97 96 98 100 102 104 109 112 116 120 125 129 131 135 138 140 144 148 146 127 109 94 84 71 58 54 46 39 34 27 23 20 19 18 18 19 22 26 29 34 41 47 52
96 96 96 101 105 108 111 115 119 123 128 130 132 136 139 145 147 149 133 113 101 89 78 67 56 51 43 35 31 26 21 18 17 17 18 19 20 26 31 33 39 45 51
96 98 101 105 108 111 114 118 122 126 129 130 133 137 140 144 146 141 122 103 91 86 72 60 53 49 40 32 28 24 20 17 17 16 17 19 20 23 28 33 38 45 49
100 103 105 109 111 114 116 121 124 127 130 130 133 136 141 143 143 130 112 96 82 80 68 56 52 46 37 30 26 23 19 16 15 15 15 18 20 22 26 32 37 43 47
106 107 109 111 114 117 120 122 125 128 130 131 133 137 139 140 129 118 108 90 75 73 61 53 50 43 35 28 24 21 19 17 15 15 14 16 20 23 25 30 36 41 46
Wind_Direction
291 296 298 301 304 304 308 311 312 312 314 314 316 316 316 316 318 318 319 318 317 316 315 315 315 316 314 312 309 306 305 297 292 283 279 275 271 267 264 260 256 252 250
294 298 301 304 307 311 314 316 316 316 317 317 317 317 318 317 318 319 319 318 317 317 318 316 317 316 316 315 312 312 308 303 297 292 287 282 276 268 260 255 250 245 241
295 298 302 306 309 313 314 317 318 320 319 319 318 317 318 320 320 320 319 319 319 319 319 318 320 319 320 319 318 315 311 307 302 297 291 285 277 270 260 249 245 239 235
295 300 305 307 308 311 315 314 316 319 321 320 318 318 320 321 320 320 319 321 320 321 320 321 321 322 321 320 320 317 313 308 303 299 292 286 277 269 259 245 239 233 229
302 306 309 308 308 309 314 315 315 318 321 320 319 320 321 321 320 322 322 322 323 323 321 322 322 322 321 321 320 316 313 309 304 299 294 285 275 264 255 237 234 227 222
306 308 309 309 309 310 313 314 317 320 321 320 319 321 321 321 322 323 324 324 324 323 323 322 322 321 320 321 319 316 313 310 305 300 293 285 271 262 250 234 226 221 217
308 310 310 312 311 313 314 317 319 321 322 321 320 321 321 322 323 324 324 324 325 324 323 323 322 321 320 321 319 316 314 310 305 299 292 283 270 258 247 232 219 216 213
307 307 310 312 313 315 317 319 319 321 321 320 320 321 321 323 324 324 324 325 325 325 323 323 322 321 321 320 319 316 314 310 305 298 290 280 268 254 244 231 215 213 208
310 309 312 313 315 317 319 320 321 321 321 321 321 322 322 323 324 324 325 325 326 324 325 324 322 323 322 320 319 317 313 309 304 298 289 277 263 250 240 228 213 211 206
310 313 314 317 317 319 320 321 320 320 320 322 322 322 322 323 324 324 325 326 326 325 325 325 323 323 321 320 320 316 313 308 303 297 287 274 258 246 236 225 212 209 204
309 312 313 316 319 320 322 323 322 321 321 321 322 320 322 323 324 325 326 327 325 326 326 325 325 323 322 321 320 316 312 307 302 294 285 274 256 241 232 222 211 207 204
307 308 309 313 317 319 319 320 322 322 321 320 321 321 322 323 325 326 326 327 325 327 328 326 325 324 323 321 319 314 310 306 300 293 285 273 255 238 229 220 211 206 203
303 305 307 313 316 318 319 321 321 320 320 320 320 321 322 324 325 327 327 326 326 328 328 326 325 324 323 321 316 313 309 306 300 292 283 271 255 236 227 219 211 206 203
302 305 307 307 311 314 316 318 319 319 320 321 321 321 323 324 325 326 328 326 328 330 328 327 325 324 323 318 315 312 309 305 299 291 282 271 253 234 225 218 212 206 202
306 308 309 309 311 312 314 316 317 317 319 320 321 322 323 324 326 326 328 327 330 330 327 327 326 325 323 318 316 313 311 306 299 290 280 269 252 234 222 218 212 206 202
307 307 305 305 308 312 313 314 316 316 318 321 321 323 323 324 326 326 327 329 332 329 328 327 327 326 323 320 316 315 313 307 298 286 274 265 250 233 221 215 211 207 203
304 304 305 306 309 313 314 314 316 315 316 320 321 322 323 325 325 327 327 331 331 330 329 327 328 326 323 320 319 316 313 305 294 281 266 257 246 230 219 214 211 207 204
304 301 304 306 309 312 313 315 315 316 316 318 320 321 323 324 325 327 329 332 331 330 329 328 328 325 324 322 320 316 312 302 292 280 264 252 244 229 217 212 211 207 206
301 303 306 308 310 311 313 313 314 314 315 318 319 321 322 323 327 328 330 331 331 330 329 328 328 326 326 325 321 318 313 303 293 280 263 244 235 226 215 211 210 208 206
301 304 307 309 310 311 311 312 313 313 315 317 318 320 322 325 327 329 330 331 330 329 330 329 327 328 328 324 321 319 313 303 291 276 262 242 231 223 214 209 208 209 208
301 304 306 308 309 310 310 311 312 312 315 316 318 321 323 326 328 329 330 330 329 330 329 328 327 329 327 322 321 320 313 302 289 272 257 238 226 221 214 209 208 208 208
300 304 305 306 307 308 309 310 311 312 313 316 319 321 323 325 328 328 330 330 329 330 329 328 328 329 326 320 319 319 310 298 284 269 252 240 225 219 215 209 207 207 208
301 303 305 306 305 306 308 309 309 311 313 317 319 322 324 326 327 328 329 329 329 329 328 327 328 328 324 318 318 316 308 295 281 267 252 238 226 218 215 209 207 206 207
300 302 302 303 304 305 306 307 309 312 313 317 320 322 324 325 326 326 328 329 330 327 328 327 328 326 322 317 316 313 307 297 284 268 251 239 226 218 214 211 205 206 206
298 299 300 302 303 303 304 306 310 311 314 317 320 322 324 325 325 325 326 329 330 325 327 327 327 325 319 315 315 312 307 298 286 273 253 236 223 216 211 209 207 206 207
296 299 299 299 300 302 305 307 310 311 314 317 320 322 323 323 323 324 325 327 330 325 326 326 326 323 318 314 314 310 304 298 285 274 260 236 221 211 209 207 206 205 207
Height
10708 10705 10702 10699 10695 10690 10685 10680 10674 10667 10659 10650 10641 10631 10621 10610 10598 10586 10575 10564 10552 10541 10526 10511 10494 10475 10457 10436 10415 10388 10364 10338 10324 10328 10317 10306 10304 10305 10308 10315 10324 10335 10347
10701 10697 10694 10690 10685 10680 10675 10669 10662 10654 10646 10636 10627 10618 10606 10593 10581 10568 10554 10543 10529 10513 10498 10480 10461 10441 10420 10392 10367 10343 10319 10299 10287 10287 10283 10272 10266 10270 10274 10286 10289 10301 10314
10692 10689 10685 10680 10675 10670 10663 10657 10649 10641 10632 10623 10613 10602 10591 10578 10565 10551 10534 10518 10502 10483 10466 10444 10422 10399 10374 10348 10325 10303 10283 10268 10253 10251 10254 10246 10240 10240 10247 10255 10264 10272 10285
10683 10679 10675 10669 10664 10658 10651 10644 10636 10627 10618 10608 10597 10585 10574 10561 10546 10534 10516 10499 10479 10457 10434 10412 10388 10363 10335 10308 10286 10268 10252 10240 10228 10220 10223 10220 10216 10214 10220 10232 10240 10251 10262
10673 10668 10663 10657 10651 10644 10637 10630 10622 10613 10602 10591 10580 10569 10556 10543 10528 10512 10495 10475 10451 10429 10405 10381 10356 10330 10302 10277 10259 10241 10225 10214 10204 10196 10192 10195 10192 10190 10197 10210 10217 10226 10241
10662 10657 10651 10644 10637 10630 10624 10616 10607 10597 10586 10575 10564 10552 10539 10525 10509 10491 10472 10451 10429 10407 10380 10355 10328 10299 10272 10251 10234 10217 10203 10191 10181 10173 10170 10169 10172 10170 10177 10188 10197 10209 10223
10650 10644 10638 10631 10624 10617 10609 10601 10592 10582 10570 10558 10545 10533 10519 10504 10487 10469 10451 10430 10408 10382 10356 10329 10300 10269 10242 10224 10209 10193 10181 10170 10160 10154 10151 10151 10152 10153 10158 10168 10180 10191 10205
10637 10630 10625 10618 10610 10603 10595 10586 10576 10565 10554 10541 10527 10513 10499 10483 10465 10447 10428 10405 10383 10360 10332 10303 10270 10240 10217 10200 10188 10172 10159 10149 10141 10135 10133 10133 10136 10137 10142 10152 10164 10173 10189
10623 10617 10611 10604 10596 10588 10580 10571 10560 10549 10536 10523 10509 10494 10478 10462 10445 10425 10404 10382 10358 10333 10306 10275 10245 10216 10194 10177 10167 10152 10140 10131 10124 10119 10117 10117 10121 10123 10128 10138 10149 10159 10174
10610 10605 10598 10590 10582 10574 10565 10555 10544 10532 10519 10506 10492 10476 10461 10444 10424 10404 10383 10358 10333 10306 10279 10249 10220 10196 10173 10157 10146 10133 10122 10114 10108 10104 10102 10103 10106 10109 10115 10124 10136 10146 10161
10598 10591 10583 10576 10568 10559 10549 10539 10528 10516 10503 10489 10475 10459 10442 10423 10403 10382 10358 10335 10310 10281 10253 10222 10198 10176 10154 10137 10126 10114 10106 10098 10093 10091 10088 10090 10092 10096 10102 10111 10122 10134 10149
10584 10576 10569 10562 10554 10544 10535 10524 10512 10500 10486 10472 10458 10441 10424 10405 10384 10360 10336 10311 10284 10255 10226 10198 10176 10157 10136 10120 10109 10098 10090 10083 10080 10078 10076 10077 10079 10084 10090 10099 10111 10123 10137
10569 10562 10555 10548 10539 10529 10518 10508 10496 10483 10470 10455 10441 10423 10405 10386 10364 10340 10316 10289 10262 10231 10200 10175 10154 10136 10117 10105 10093 10083 10074 10069 10066 10065 10064 10065 10068 10073 10078 10087 10099 10111 10126
10556 10548 10540 10533 10524 10513 10502 10491 10479 10467 10452 10437 10422 10406 10387 10365 10344 10321 10296 10268 10239 10208 10179 10157 10136 10119 10102 10088 10078 10069 10061 10056 10054 10052 10052 10054 10056 10062 10067 10076 10087 10100 10114
10540 10533 10525 10517 10508 10497 10486 10474 10462 10447 10434 10419 10403 10387 10366 10345 10325 10301 10275 10247 10217 10186 10160 10142 10118 10102 10088 10074 10064 10055 10049 10045 10042 10041 10041 10042 10045 10050 10056 10066 10077 10089 10103
10523 10516 10510 10501 10491 10481 10469 10457 10443 10429 10416 10401 10384 10367 10347 10327 10306 10282 10257 10227 10196 10166 10141 10121 10102 10085 10072 10062 10052 10043 10039 10035 10032 10031 10030 10032 10035 10040 10046 10055 10065 10078 10092
10506 10498 10492 10483 10475 10463 10451 10438 10424 10410 10396 10382 10365 10349 10330 10309 10288 10264 10236 10203 10175 10149 10125 10104 10088 10074 10060 10050 10041 10034 10030 10025 10022 10022 10021 10023 10026 10030 10037 10045 10055 10067 10081
10488 10480 10473 10465 10455 10444 10431 10419 10405 10392 10378 10364 10347 10331 10312 10293 10270 10243 10212 10184 10154 10134 10113 10089 10074 10062 10049 10040 10032 10026 10021 10017 10014 10013 10013 10015 10018 10022 10028 10036 10045 10057 10070
10468 10460 10453 10446 10436 10424 10412 10400 10387 10374 10361 10345 10329 10312 10294 10274 10250 10224 10194 10167 10138 10118 10098 10079 10064 10050 10038 10030 10024 10018 10013 10009 10007 10006 10006 10008 10011 10014 10020 10028 10037 10047 10059
10451 10443 10434 10426 10416 10406 10394 10381 10368 10354 10341 10325 10309 10292 10274 10253 10230 10205 10178 10148 10121 10105 10085 10067 10053 10040 10029 10022 10016 10011 10006 10003 10000 9999 9999 10002 10004 10008 10013 10020 10028 10038 10051
10432 10425 10416 10407 10397 10387 10375 10363 10350 10335 10323 10307 10290 10272 10251 10232 10210 10184 10161 10135 10106 10090 10072 10059 10043 10032 10022 10014 10009 10005 10000 9996 9993 9993 9993 9995 9997 10001 10007 10014 10021 10031 10042
10412 10406 10398 10388 10378 10367 10356 10345 10331 10317 10303 10288 10270 10250 10230 10209 10188 10165 10143 10118 10092 10077 10060 10047 10035 10023 10015 10007 10001 9998 9995 9991 9988 9987 9988 9990 9992 9996 10000 10007 10015 10024 10034
10392 10387 10379 10370 10359 10348 10337 10325 10312 10298 10282 10268 10249 10230 10209 10187 10165 10148 10128 10106 10079 10066 10051 10037 10025 10015 10008 10001 9995 9991 9989 9986 9983 9982 9982 9984 9987 9990 9994 10001 10009 10017 10026
10373 10367 10359 10350 10340 10330 10318 10306 10293 10278 10262 10248 10232 10213 10192 10168 10144 10124 10110 10094 10072 10049 10042 10030 10018 10007 10001 9995 9989 9986 9983 9981 9978 9977 9977 9979 9982 9986 9991 9996 10002 10009 10018
10353 10346 10338 10329 10319 10309 10299 10286 10273 10257 10243 10229 10214 10195 10173 10151 10131 10103 10093 10081 10065 10041 10031 10019 10008 10000 9994 9988 9983 9980 9978 9976 9974 9972 9972 9974 9977 9981 9986 9991 9998 10004 10012
10332 10325 10316 10306 10295 10285 10273 10263 10251 10237 10224 10210 10194 10178 10156 10134 10115 10097 10067 10059 10055 10032 10023 10010 10001 9993 9986 9982 9977 9975 9973 9971 9970 9968 9968 9969 9972 9975 9980 9985 9992 10000 10008